Station Historical Data
Daily Summary for May 11, 2017 Units:  Metric    English   Both
« Previous Day
Next Day »
Daily Weekly Monthly Yearly Custom
  High: Low: Average:
Temperature: 16 °C 6.4 °C 10.9 °C
Dew Point: 5.7 °C 0.7 °C 3.2 °C
Humidity: 70% 46% 59%
Wind Speed: 20.9km/h 0km/h 7.4km/h
Wind Gust: 29km/h - -
Wind- - ENE
Pressure: 1017.8 hPa 1013.8 hPa -
Precipitation: 0 mm    
Historical Graphs
 
 
Tabular Data for May 11, 2017
Time Temperature Dew Point Pressure Wind Wind Speed Wind Gust Humidity Rainfall Rate (Hourly)
00:04 7.2 °C 0.8 °C 1017.8 hPa East 3.2 km/h 8 km/h 64% 0 mm
00:09 7.3 °C 0.9 °C 1017.8 hPa ENE 3.2 km/h 8 km/h 64% 0 mm
00:14 7.2 °C 0.8 °C 1017.8 hPa East 3.2 km/h 8 km/h 64% 0 mm
00:19 7.2 °C 0.8 °C 1017.8 hPa Calm   4.8 km/h 64% 0 mm
00:24 7.1 °C 0.8 °C 1017.8 hPa East 3.2 km/h 4.8 km/h 64% 0 mm
00:29 7.2 °C 1 °C 1017.8 hPa East 1.6 km/h 8 km/h 65% 0 mm
00:34 7.1 °C 0.9 °C 1017.8 hPa East 3.2 km/h 4.8 km/h 65% 0 mm
00:39 7 °C 0.9 °C 1017.8 hPa Calm   4.8 km/h 65% 0 mm
00:44 6.9 °C 0.9 °C 1017.5 hPa Calm   4.8 km/h 66% 0 mm
00:49 6.9 °C 0.9 °C 1017.5 hPa Calm   3.2 km/h 66% 0 mm
00:54 6.8 °C 1.1 °C 1017.5 hPa ENE 1.6 km/h 6.4 km/h 67% 0 mm
00:59 6.8 °C 1.1 °C 1017.2 hPa ENE 3.2 km/h 6.4 km/h 67% 0 mm
01:04 6.9 °C 0.9 °C 1017.2 hPa ENE 3.2 km/h 8 km/h 66% 0 mm
01:09 6.9 °C 0.9 °C 1017.2 hPa ENE 1.6 km/h 6.4 km/h 66% 0 mm
01:14 6.9 °C 0.8 °C 1017.2 hPa ENE 4.8 km/h 8 km/h 65% 0 mm
01:19 6.9 °C 0.8 °C 1017.2 hPa ENE 3.2 km/h 9.7 km/h 65% 0 mm
01:24 7 °C 0.7 °C 1017.2 hPa NE 1.6 km/h 9.7 km/h 64% 0 mm
01:29 7 °C 0.7 °C 1017.2 hPa Calm   4.8 km/h 64% 0 mm
01:34 6.8 °C 0.7 °C 1017.2 hPa Calm   1.6 km/h 65% 0 mm
01:39 6.7 °C 0.8 °C 1017.2 hPa NE 1.6 km/h 8 km/h 66% 0 mm
01:44 6.6 °C 0.9 °C 1017.2 hPa NE 1.6 km/h 8 km/h 67% 0 mm
01:49 6.5 °C 0.8 °C 1016.8 hPa Calm   4.8 km/h 67% 0 mm
01:54 6.4 °C 0.9 °C 1016.8 hPa NE 1.6 km/h 6.4 km/h 68% 0 mm
01:59 6.5 °C 1 °C 1016.5 hPa NE 1.6 km/h 6.4 km/h 68% 0 mm
02:04 6.6 °C 1.1 °C 1016.5 hPa NE 1.6 km/h 6.4 km/h 68% 0 mm
02:09 6.6 °C 0.9 °C 1016.5 hPa NE 4.8 km/h 8 km/h 67% 0 mm
02:14 6.7 °C 0.9 °C 1016.5 hPa NE 4.8 km/h 11.3 km/h 67% 0 mm
02:19 6.7 °C 1 °C 1016.5 hPa NE 4.8 km/h 11.3 km/h 67% 0 mm
02:24 6.8 °C 0.9 °C 1016.5 hPa ENE 11.3 km/h 11.3 km/h 66% 0 mm
02:29 6.7 °C 0.8 °C 1016.5 hPa ENE 3.2 km/h 12.9 km/h 66% 0 mm
02:34 6.7 °C 0.8 °C 1016.5 hPa NE 8 km/h 16.1 km/h 66% 0 mm
02:39 6.7 °C 0.8 °C 1016.1 hPa NE 8 km/h 16.1 km/h 66% 0 mm
02:44 6.7 °C 0.8 °C 1016.1 hPa NE 4.8 km/h 16.1 km/h 66% 0 mm
02:49 6.7 °C 0.9 °C 1016.1 hPa ENE 4.8 km/h 14.5 km/h 67% 0 mm
02:54 6.7 °C 0.9 °C 1016.1 hPa NE 6.4 km/h 12.9 km/h 67% 0 mm
02:59 6.7 °C 0.9 °C 1015.8 hPa ENE 6.4 km/h 12.9 km/h 67% 0 mm
03:04 6.7 °C 0.8 °C 1015.8 hPa SE 3.2 km/h 14.5 km/h 66% 0 mm
03:09 6.7 °C 0.8 °C 1015.8 hPa ENE 6.4 km/h 16.1 km/h 66% 0 mm
03:14 6.7 °C 0.8 °C 1016.1 hPa ENE 6.4 km/h 16.1 km/h 66% 0 mm
03:19 6.8 °C 0.9 °C 1015.8 hPa ENE 6.4 km/h 14.5 km/h 66% 0 mm
03:24 6.8 °C 1.1 °C 1015.8 hPa ENE 6.4 km/h 14.5 km/h 67% 0 mm
03:29 6.8 °C 1.1 °C 1015.8 hPa ENE 6.4 km/h 12.9 km/h 67% 0 mm
03:34 6.8 °C 1.1 °C 1016.1 hPa East 8 km/h 11.3 km/h 67% 0 mm
03:39 6.8 °C 1.1 °C 1016.1 hPa ENE 6.4 km/h 11.3 km/h 67% 0 mm
03:44 6.8 °C 1.3 °C 1016.1 hPa ENE 6.4 km/h 19.3 km/h 68% 0 mm
03:49 6.8 °C 1.3 °C 1016.1 hPa ENE 6.4 km/h 19.3 km/h 68% 0 mm
03:54 6.8 °C 1.3 °C 1016.1 hPa East 4.8 km/h 12.9 km/h 68% 0 mm
03:59 6.7 °C 1.2 °C 1016.1 hPa ENE 3.2 km/h 12.9 km/h 68% 0 mm
04:04 6.8 °C 1.3 °C 1016.1 hPa ENE 3.2 km/h 11.3 km/h 68% 0 mm
04:09 6.7 °C 1.2 °C 1016.1 hPa ENE 4.8 km/h 11.3 km/h 68% 0 mm
04:14 6.8 °C 1.3 °C 1015.8 hPa ENE 6.4 km/h 16.1 km/h 68% 0 mm
04:19 6.9 °C 1.4 °C 1015.8 hPa ENE 8 km/h 16.1 km/h 68% 0 mm
04:24 6.9 °C 1.2 °C 1015.8 hPa ENE 8 km/h 12.9 km/h 67% 0 mm
04:29 7.1 °C 1.3 °C 1015.8 hPa East 3.2 km/h 14.5 km/h 67% 0 mm
04:34 7.1 °C 1.2 °C 1015.8 hPa NE 6.4 km/h 12.9 km/h 66% 0 mm
04:39 7.1 °C 1.2 °C 1015.8 hPa ENE 6.4 km/h 12.9 km/h 66% 0 mm
04:44 7.2 °C 1.4 °C 1015.8 hPa ENE 4.8 km/h 11.3 km/h 67% 0 mm
04:49 7.1 °C 1.2 °C 1015.8 hPa ENE 6.4 km/h 11.3 km/h 66% 0 mm
04:54 7.2 °C 1.4 °C 1015.5 hPa ENE 4.8 km/h 8 km/h 67% 0 mm
04:59 7.2 °C 1.4 °C 1015.5 hPa ENE 3.2 km/h 12.9 km/h 67% 0 mm
05:04 7.2 °C 1.4 °C 1015.1 hPa ENE 6.4 km/h 11.3 km/h 67% 0 mm
05:09 7.2 °C 1.4 °C 1015.1 hPa ENE 6.4 km/h 14.5 km/h 67% 0 mm
05:14 7.1 °C 1.4 °C 1015.1 hPa ENE 6.4 km/h 14.5 km/h 67% 0 mm
05:19 7.1 °C 1.6 °C 1014.8 hPa ENE 6.4 km/h 14.5 km/h 68% 0 mm
05:24 7.1 °C 1.6 °C 1014.8 hPa ENE 6.4 km/h 16.1 km/h 68% 0 mm
05:29 7.1 °C 1.6 °C 1014.4 hPa NE 4.8 km/h 16.1 km/h 68% 0 mm
05:34 7 °C 1.5 °C 1014.4 hPa ESE 6.4 km/h 12.9 km/h 68% 0 mm
05:39 7.1 °C 1.6 °C 1014.4 hPa ENE 6.4 km/h 12.9 km/h 68% 0 mm
05:44 7 °C 1.5 °C 1014.4 hPa ENE 3.2 km/h 12.9 km/h 68% 0 mm
05:49 7.1 °C 1.7 °C 1014.4 hPa NE 11.3 km/h 19.3 km/h 69% 0 mm
05:54 7.1 °C 1.7 °C 1014.4 hPa NE 8 km/h 16.1 km/h 69% 0 mm
05:59 7.1 °C 1.7 °C 1014.4 hPa ENE 11.3 km/h 17.7 km/h 69% 0 mm
06:04 7 °C 1.7 °C 1014.8 hPa ENE 8 km/h 17.7 km/h 69% 0 mm
06:09 7.1 °C 1.7 °C 1014.8 hPa NE 9.7 km/h 17.7 km/h 69% 0 mm
06:14 7 °C 1.9 °C 1014.4 hPa NE 8 km/h 16.1 km/h 70% 0 mm
06:19 7 °C 1.7 °C 1014.4 hPa NE 8 km/h 17.7 km/h 69% 0 mm
06:24 7.1 °C 1.8 °C 1014.4 hPa ENE 8 km/h 17.7 km/h 69% 0 mm
06:29 7.2 °C 2.1 °C 1014.4 hPa ENE 6.4 km/h 12.9 km/h 70% 0 mm
06:34 7.2 °C 2.1 °C 1014.4 hPa NE 4.8 km/h 12.9 km/h 70% 0 mm
06:39 7.3 °C 2.2 °C 1014.4 hPa ENE 6.4 km/h 20.9 km/h 70% 0 mm
06:44 7.3 °C 2 °C 1014.4 hPa ENE 6.4 km/h 17.7 km/h 69% 0 mm
06:49 7.4 °C 2.1 °C 1014.4 hPa NE 11.3 km/h 14.5 km/h 69% 0 mm
06:54 7.4 °C 2.1 °C 1014.4 hPa ENE 4.8 km/h 16.1 km/h 69% 0 mm
06:59 7.6 °C 2.2 °C 1014.8 hPa ENE 3.2 km/h 9.7 km/h 69% 0 mm
07:04 7.6 °C 2.3 °C 1014.8 hPa ENE 6.4 km/h 11.3 km/h 69% 0 mm
07:09 7.6 °C 2.3 °C 1015.1 hPa ENE 4.8 km/h 11.3 km/h 69% 0 mm
07:14 7.7 °C 2.6 °C 1014.8 hPa ENE 6.4 km/h 11.3 km/h 70% 0 mm
07:19 7.7 °C 2.6 °C 1014.8 hPa ENE 6.4 km/h 14.5 km/h 70% 0 mm
07:24 7.7 °C 2.6 °C 1014.8 hPa ENE 8 km/h 14.5 km/h 70% 0 mm
07:29 7.7 °C 2.6 °C 1014.8 hPa ENE 8 km/h 16.1 km/h 70% 0 mm
07:34 7.8 °C 2.5 °C 1014.8 hPa ENE 6.4 km/h 16.1 km/h 69% 0 mm
07:39 7.8 °C 2.5 °C 1014.8 hPa NE 8 km/h 16.1 km/h 69% 0 mm
07:44 7.9 °C 2.6 °C 1014.8 hPa NE 8 km/h 16.1 km/h 69% 0 mm
07:49 8.1 °C 2.7 °C 1014.8 hPa NE 8 km/h 12.9 km/h 69% 0 mm
07:54 8.2 °C 2.7 °C 1014.8 hPa ENE 6.4 km/h 14.5 km/h 68% 0 mm
07:59 8.4 °C 2.7 °C 1015.1 hPa NE 11.3 km/h 17.7 km/h 67% 0 mm
08:04 8.6 °C 2.8 °C 1015.1 hPa NE 1.6 km/h 14.5 km/h 67% 0 mm
08:09 8.7 °C 2.9 °C 1014.8 hPa ENE 6.4 km/h 14.5 km/h 67% 0 mm
08:14 8.8 °C 2.8 °C 1014.8 hPa ENE 8 km/h 16.1 km/h 66% 0 mm
08:19 8.9 °C 3.1 °C 1014.8 hPa ENE 8 km/h 16.1 km/h 67% 0 mm
08:24 9 °C 3.2 °C 1014.8 hPa ENE 9.7 km/h 16.1 km/h 67% 0 mm
08:29 9.1 °C 3.7 °C 1014.8 hPa NE 14.5 km/h 14.5 km/h 69% 0 mm
08:34 9 °C 3.6 °C 1015.1 hPa NE 14.5 km/h 17.7 km/h 69% 0 mm
08:39 9.1 °C 3.7 °C 1015.1 hPa NE 12.9 km/h 19.3 km/h 69% 0 mm
08:44 9 °C 3.4 °C 1015.1 hPa NE 9.7 km/h 19.3 km/h 68% 0 mm
08:49 9.1 °C 3.7 °C 1015.1 hPa NE 9.7 km/h 20.9 km/h 69% 0 mm
08:54 9.2 °C 3.6 °C 1015.1 hPa NE 8 km/h 19.3 km/h 68% 0 mm
08:59 9.2 °C 3.6 °C 1015.1 hPa ENE 16.1 km/h 19.3 km/h 68% 0 mm
09:04 9.3 °C 3.7 °C 1015.1 hPa NE 4.8 km/h 19.3 km/h 68% 0 mm
09:14 9.5 °C 3.2 °C 1015.1 hPa East 12.9 km/h 19.3 km/h 65% 0 mm
09:19 9.7 °C 3.4 °C 1015.1 hPa NE 9.7 km/h 16.1 km/h 65% 0 mm
09:24 9.8 °C 3.3 °C 1014.8 hPa NE 9.7 km/h 24.1 km/h 64% 0 mm
09:29 9.9 °C 3.4 °C 1015.1 hPa NE 14.5 km/h 19.3 km/h 64% 0 mm
09:34 10 °C 3.3 °C 1015.5 hPa NE 11.3 km/h 22.5 km/h 63% 0 mm
09:39 10.1 °C 3.4 °C 1015.5 hPa ENE 11.3 km/h 22.5 km/h 63% 0 mm
09:44 10.2 °C 3.2 °C 1015.1 hPa NE 12.9 km/h 22.5 km/h 62% 0 mm
09:49 10.3 °C 3.3 °C 1015.1 hPa NE 12.9 km/h 27.4 km/h 62% 0 mm
09:54 10.5 °C 3.7 °C 1015.1 hPa ENE 11.3 km/h 27.4 km/h 63% 0 mm
09:59 10.7 °C 3.4 °C 1015.1 hPa ENE 8 km/h 22.5 km/h 61% 0 mm
10:04 10.9 °C 3.7 °C 1014.8 hPa ENE 11.3 km/h 22.5 km/h 61% 0 mm
10:09 11 °C 3.8 °C 1014.8 hPa ENE 12.9 km/h 24.1 km/h 61% 0 mm
10:14 11.1 °C 3.6 °C 1014.8 hPa NE 9.7 km/h 25.7 km/h 60% 0 mm
10:19 11.3 °C 3.8 °C 1014.8 hPa ENE 12.9 km/h 20.9 km/h 60% 0 mm
10:24 11.6 °C 4.1 °C 1014.4 hPa ESE 6.4 km/h 20.9 km/h 60% 0 mm
10:29 12 °C 4.2 °C 1014.4 hPa North 14.5 km/h 20.9 km/h 59% 0 mm
10:34 12.4 °C 4.4 °C 1014.4 hPa ENE 6.4 km/h 24.1 km/h 58% 0 mm
10:39 12.7 °C 4.6 °C 1014.4 hPa ENE 11.3 km/h 25.7 km/h 58% 0 mm
10:44 12.8 °C 4.8 °C 1014.4 hPa ENE 11.3 km/h 25.7 km/h 58% 0 mm
10:49 12.9 °C 4.4 °C 1014.4 hPa East 11.3 km/h 25.7 km/h 56% 0 mm
10:54 13.2 °C 4.6 °C 1014.4 hPa ENE 9.7 km/h 24.1 km/h 56% 0 mm
10:59 13.3 °C 4.5 °C 1014.4 hPa NE 6.4 km/h 19.3 km/h 55% 0 mm
11:04 13.7 °C 4.5 °C 1014.4 hPa NE 8 km/h 22.5 km/h 54% 0 mm
11:09 13.9 °C 4.4 °C 1014.4 hPa ENE 11.3 km/h 27.4 km/h 53% 0 mm
11:14 13.9 °C 3.9 °C 1014.4 hPa ENE 12.9 km/h 27.4 km/h 51% 0 mm
11:19 13.8 °C 4.1 °C 1014.4 hPa ENE 11.3 km/h 25.7 km/h 52% 0 mm
11:24 13.7 °C 3.8 °C 1014.1 hPa ENE 6.4 km/h 22.5 km/h 51% 0 mm
11:29 13.7 °C 3.8 °C 1014.4 hPa ENE 6.4 km/h 22.5 km/h 51% 0 mm
11:34 13.8 °C 3.8 °C 1014.1 hPa East 9.7 km/h 22.5 km/h 51% 0 mm
11:39 13.8 °C 3.8 °C 1014.1 hPa East 8 km/h 20.9 km/h 51% 0 mm
11:44 13.7 °C 3.8 °C 1014.4 hPa East 9.7 km/h 20.9 km/h 51% 0 mm
11:49 13.6 °C 3.9 °C 1014.4 hPa ENE 3.2 km/h 20.9 km/h 52% 0 mm
11:54 13.7 °C 4 °C 1014.4 hPa NE 14.5 km/h 20.9 km/h 52% 0 mm
11:59 13.6 °C 3.9 °C 1014.4 hPa ENE 11.3 km/h 17.7 km/h 52% 0 mm
12:04 13.7 °C 4 °C 1014.4 hPa ENE 17.7 km/h 19.3 km/h 52% 0 mm
12:09 13.7 °C 4.1 °C 1014.4 hPa ENE 8 km/h 19.3 km/h 52% 0 mm
12:14 13.8 °C 4.3 °C 1014.4 hPa ENE 9.7 km/h 17.7 km/h 53% 0 mm
12:19 13.8 °C 3.8 °C 1014.4 hPa ENE 9.7 km/h 17.7 km/h 51% 0 mm
12:24 13.7 °C 4.1 °C 1014.8 hPa ENE 8 km/h 17.7 km/h 52% 0 mm
12:29 13.7 °C 4 °C 1014.4 hPa ENE 8 km/h 16.1 km/h 52% 0 mm
12:34 13.6 °C 3.9 °C 1014.4 hPa NE 8 km/h 17.7 km/h 52% 0 mm
12:39 13.6 °C 3.9 °C 1014.1 hPa ENE 8 km/h 20.9 km/h 52% 0 mm
12:44 13.7 °C 4 °C 1014.1 hPa ENE 8 km/h 17.7 km/h 52% 0 mm
12:49 13.6 °C 3.9 °C 1014.1 hPa NE 11.3 km/h 16.1 km/h 52% 0 mm
12:54 13.6 °C 3.9 °C 1014.1 hPa NE 12.9 km/h 22.5 km/h 52% 0 mm
12:59 13.6 °C 3.9 °C 1014.1 hPa ENE 4.8 km/h 17.7 km/h 52% 0 mm
13:04 13.7 °C 4 °C 1014.1 hPa NE 8 km/h 17.7 km/h 52% 0 mm
13:09 13.8 °C 4.4 °C 1014.1 hPa ENE 8 km/h 20.9 km/h 53% 0 mm
13:14 14.2 °C 4.2 °C 1014.1 hPa East 8 km/h 20.9 km/h 51% 0 mm
13:19 14.4 °C 4.4 °C 1014.1 hPa ENE 9.7 km/h 17.7 km/h 51% 0 mm
13:24 14.5 °C 4.2 °C 1014.1 hPa ENE 9.7 km/h 17.7 km/h 50% 0 mm
13:29 14.6 °C 4.3 °C 1014.1 hPa ENE 8 km/h 19.3 km/h 50% 0 mm
13:34 14.5 °C 4.2 °C 1014.1 hPa ENE 9.7 km/h 19.3 km/h 50% 0 mm
13:39 14.4 °C 4.4 °C 1014.4 hPa ENE 9.7 km/h 17.7 km/h 51% 0 mm
13:44 14.4 °C 4.2 °C 1014.1 hPa NE 11.3 km/h 29 km/h 50% 0 mm
13:49 14.4 °C 4.2 °C 1014.1 hPa East 9.7 km/h 25.7 km/h 50% 0 mm
13:54 14.4 °C 4.4 °C 1014.1 hPa NE 9.7 km/h 17.7 km/h 51% 0 mm
13:59 14.4 °C 4.4 °C 1014.4 hPa NE 9.7 km/h 17.7 km/h 51% 0 mm
14:04 14.5 °C 4.8 °C 1014.1 hPa ENE 9.7 km/h 17.7 km/h 52% 0 mm
14:09 14.6 °C 4.5 °C 1014.4 hPa ENE 8 km/h 17.7 km/h 51% 0 mm
14:14 14.6 °C 4.8 °C 1014.1 hPa NNE 11.3 km/h 19.3 km/h 52% 0 mm
14:19 14.6 °C 4.3 °C 1014.4 hPa SE 9.7 km/h 19.3 km/h 50% 0 mm
14:24 14.7 °C 4.7 °C 1014.4 hPa North 3.2 km/h 14.5 km/h 51% 0 mm
14:29 14.8 °C 4.4 °C 1014.4 hPa East 8 km/h 19.3 km/h 50% 0 mm
14:34 14.8 °C 4.7 °C 1014.4 hPa NE 9.7 km/h 19.3 km/h 51% 0 mm
14:39 14.9 °C 4.3 °C 1014.1 hPa NE 9.7 km/h 17.7 km/h 49% 0 mm
14:44 15.1 °C 4.4 °C 1014.1 hPa ENE 8 km/h 19.3 km/h 49% 0 mm
14:49 15.2 °C 4.3 °C 1014.1 hPa ENE 9.7 km/h 20.9 km/h 48% 0 mm
14:54 15.2 °C 4.6 °C 1014.1 hPa NE 11.3 km/h 20.9 km/h 49% 0 mm
14:59 15.4 °C 4.7 °C 1014.1 hPa SSE 3.2 km/h 14.5 km/h 49% 0 mm
15:04 15.5 °C 4.5 °C 1014.1 hPa East 8 km/h 20.9 km/h 48% 0 mm
15:09 15.6 °C 4.3 °C 1014.1 hPa ENE 6.4 km/h 22.5 km/h 47% 0 mm
15:14 15.7 °C 4.4 °C 1013.8 hPa ENE 4.8 km/h 20.9 km/h 47% 0 mm
15:19 15.8 °C 4.2 °C 1014.1 hPa ENE 8 km/h 20.9 km/h 46% 0 mm
15:24 15.9 °C 4.9 °C 1013.8 hPa NE 8 km/h 16.1 km/h 48% 0 mm
15:29 15.9 °C 4.6 °C 1013.8 hPa ENE 8 km/h 24.1 km/h 47% 0 mm
15:34 16 °C 4.4 °C 1013.8 hPa ENE 8 km/h 24.1 km/h 46% 0 mm
15:39 16 °C 4.4 °C 1013.8 hPa ENE 6.4 km/h 16.1 km/h 46% 0 mm
15:44 15.9 °C 4.3 °C 1014.1 hPa ENE 8 km/h 17.7 km/h 46% 0 mm
15:49 15.7 °C 4.1 °C 1014.1 hPa NE 8 km/h 17.7 km/h 46% 0 mm
15:54 15.7 °C 4.1 °C 1014.1 hPa ENE 9.7 km/h 17.7 km/h 46% 0 mm
15:59 15.6 °C 4.6 °C 1014.1 hPa ESE 4.8 km/h 17.7 km/h 48% 0 mm
16:04 15.7 °C 4.7 °C 1013.8 hPa ENE 9.7 km/h 22.5 km/h 48% 0 mm
16:09 15.6 °C 5.4 °C 1013.8 hPa ENE 8 km/h 22.5 km/h 51% 0 mm
16:14 15.6 °C 5.4 °C 1013.8 hPa NE 11.3 km/h 27.4 km/h 51% 0 mm
16:19 15.5 °C 5.4 °C 1013.8 hPa ENE 20.9 km/h 27.4 km/h 51% 0 mm
16:24 15.6 °C 5.7 °C 1013.8 hPa NE 16.1 km/h 25.7 km/h 52% 0 mm
16:29 15.6 °C 5.2 °C 1013.8 hPa ENE 17.7 km/h 25.7 km/h 50% 0 mm
16:34 15.4 °C 5 °C 1014.1 hPa ENE 12.9 km/h 25.7 km/h 50% 0 mm
16:39 15.3 °C 4.9 °C 1014.1 hPa ENE 12.9 km/h 27.4 km/h 50% 0 mm
16:44 15.2 °C 4.8 °C 1014.1 hPa NE 12.9 km/h 27.4 km/h 50% 0 mm
16:49 14.9 °C 4.6 °C 1014.1 hPa NE 14.5 km/h 27.4 km/h 50% 0 mm
16:54 14.8 °C 5 °C 1014.4 hPa NE 14.5 km/h 24.1 km/h 52% 0 mm
16:59 14.8 °C 4.7 °C 1014.4 hPa ENE 11.3 km/h 25.7 km/h 51% 0 mm
17:04 14.7 °C 4.6 °C 1014.4 hPa NE 14.5 km/h 27.4 km/h 51% 0 mm
17:09 14.6 °C 4.8 °C 1014.4 hPa ENE 14.5 km/h 27.4 km/h 52% 0 mm
17:14 14.6 °C 4.6 °C 1014.4 hPa ENE 11.3 km/h 27.4 km/h 51% 0 mm
17:19 14.4 °C 4.4 °C 1014.4 hPa NE 11.3 km/h 22.5 km/h 51% 0 mm
17:24 14.3 °C 4.3 °C 1014.4 hPa NE 11.3 km/h 29 km/h 51% 0 mm
17:29 14.2 °C 4.2 °C 1014.4 hPa NE 17.7 km/h 27.4 km/h 51% 0 mm
17:34 14.1 °C 4.1 °C 1014.4 hPa NE 12.9 km/h 27.4 km/h 51% 0 mm
17:39 13.9 °C 3.7 °C 1014.4 hPa ENE 6.4 km/h 22.5 km/h 50% 0 mm
17:44 13.8 °C 3.6 °C 1014.4 hPa NE 8 km/h 24.1 km/h 50% 0 mm
17:49 13.7 °C 3.5 °C 1014.8 hPa ENE 14.5 km/h 25.7 km/h 50% 0 mm
17:54 13.6 °C 3.4 °C 1014.8 hPa NE 16.1 km/h 25.7 km/h 50% 0 mm
17:59 13.5 °C 3.6 °C 1014.8 hPa ENE 12.9 km/h 20.9 km/h 51% 0 mm
18:04 13.3 °C 3.4 °C 1014.8 hPa NE 14.5 km/h 25.7 km/h 51% 0 mm
18:09 13.3 °C 3.3 °C 1014.8 hPa NE 12.9 km/h 25.7 km/h 51% 0 mm
18:14 13.3 °C 3.3 °C 1014.8 hPa NE 11.3 km/h 25.7 km/h 51% 0 mm
18:19 13.3 °C 3.3 °C 1014.8 hPa ENE 11.3 km/h 25.7 km/h 51% 0 mm
18:24 13.2 °C 3.3 °C 1014.4 hPa ENE 11.3 km/h 22.5 km/h 51% 0 mm
18:29 13.2 °C 3.6 °C 1014.8 hPa NE 11.3 km/h 17.7 km/h 52% 0 mm
18:34 13.2 °C 3.2 °C 1014.8 hPa ENE 14.5 km/h 20.9 km/h 51% 0 mm
18:39 13.1 °C 3.2 °C 1014.8 hPa NE 16.1 km/h 22.5 km/h 51% 0 mm
18:44 13.1 °C 3.4 °C 1014.8 hPa NE 11.3 km/h 17.7 km/h 52% 0 mm
18:49 13.1 °C 3.2 °C 1014.8 hPa ENE 3.2 km/h 27.4 km/h 51% 0 mm
18:54 13.1 °C 3.4 °C 1014.4 hPa NE 6.4 km/h 20.9 km/h 52% 0 mm
18:59 13 °C 3.1 °C 1014.4 hPa ENE 4.8 km/h 17.7 km/h 51% 0 mm
19:04 12.9 °C 3.3 °C 1014.8 hPa NE 8 km/h 17.7 km/h 52% 0 mm
19:09 12.9 °C 3.3 °C 1014.4 hPa NE 8 km/h 19.3 km/h 52% 0 mm
19:14 12.9 °C 3.3 °C 1014.8 hPa NE 9.7 km/h 20.9 km/h 52% 0 mm
19:19 12.9 °C 3.3 °C 1014.8 hPa NE 12.9 km/h 20.9 km/h 52% 0 mm
19:24 12.8 °C 3.5 °C 1014.8 hPa NE 6.4 km/h 17.7 km/h 53% 0 mm
19:29 12.8 °C 3.4 °C 1014.8 hPa NE 9.7 km/h 12.9 km/h 53% 0 mm
19:34 12.7 °C 3.4 °C 1014.8 hPa NE 8 km/h 16.1 km/h 53% 0 mm
19:39 12.7 °C 3.7 °C 1014.8 hPa NE 8 km/h 16.1 km/h 54% 0 mm
19:44 12.7 °C 3.6 °C 1015.1 hPa NE 8 km/h 17.7 km/h 54% 0 mm
19:49 12.6 °C 3.6 °C 1015.1 hPa NE 8 km/h 17.7 km/h 54% 0 mm
19:54 12.6 °C 3.8 °C 1015.1 hPa NE 1.6 km/h 8 km/h 55% 0 mm
19:59 12.6 °C 3.7 °C 1015.1 hPa NE 3.2 km/h 9.7 km/h 55% 0 mm
20:04 12.6 °C 3.7 °C 1015.1 hPa NE 3.2 km/h 9.7 km/h 55% 0 mm
20:09 12.5 °C 3.7 °C 1015.1 hPa NE 6.4 km/h 9.7 km/h 55% 0 mm
20:14 12.4 °C 3.7 °C 1015.1 hPa ENE 6.4 km/h 14.5 km/h 55% 0 mm
20:19 12.3 °C 3.6 °C 1015.5 hPa ENE 4.8 km/h 9.7 km/h 55% 0 mm
20:24 12.3 °C 3.5 °C 1015.1 hPa NE 1.6 km/h 11.3 km/h 55% 0 mm
20:29 12.3 °C 3.7 °C 1015.5 hPa NE 1.6 km/h 4.8 km/h 56% 0 mm
20:34 12.2 °C 3.9 °C 1015.5 hPa NE 3.2 km/h 6.4 km/h 57% 0 mm
20:39 12.1 °C 3.8 °C 1015.5 hPa NE 4.8 km/h 12.9 km/h 57% 0 mm
20:44 12 °C 3.7 °C 1015.5 hPa ENE 4.8 km/h 12.9 km/h 57% 0 mm
20:49 12 °C 3.7 °C 1015.5 hPa ENE 4.8 km/h 12.9 km/h 57% 0 mm
20:54 11.9 °C 3.7 °C 1015.5 hPa ENE 4.8 km/h 12.9 km/h 57% 0 mm
20:59 11.9 °C 3.9 °C 1015.5 hPa ENE 4.8 km/h 11.3 km/h 58% 0 mm
21:04 11.9 °C 4.1 °C 1015.8 hPa NE 4.8 km/h 11.3 km/h 59% 0 mm
21:09 11.9 °C 4.1 °C 1015.8 hPa NE 3.2 km/h 11.3 km/h 59% 0 mm
21:14 11.8 °C 4.1 °C 1015.8 hPa ENE 6.4 km/h 11.3 km/h 59% 0 mm
21:19 11.8 °C 4.1 °C 1015.8 hPa NE 8 km/h 9.7 km/h 59% 0 mm
21:24 11.8 °C 4 °C 1015.8 hPa NE 3.2 km/h 14.5 km/h 59% 0 mm
21:29 11.7 °C 3.9 °C 1015.8 hPa NE 4.8 km/h 9.7 km/h 59% 0 mm
21:34 11.7 °C 3.9 °C 1015.8 hPa NE 6.4 km/h 9.7 km/h 59% 0 mm
21:39 11.7 °C 4.2 °C 1015.8 hPa NE 4.8 km/h 9.7 km/h 60% 0 mm
21:44 11.7 °C 4.2 °C 1015.8 hPa NE 4.8 km/h 11.3 km/h 60% 0 mm
21:49 11.6 °C 4.1 °C 1016.1 hPa NE 4.8 km/h 11.3 km/h 60% 0 mm
21:54 11.6 °C 4.1 °C 1016.1 hPa NNE 1.6 km/h 9.7 km/h 60% 0 mm
21:59 11.5 °C 4.2 °C 1015.8 hPa NNE 6.4 km/h 6.4 km/h 61% 0 mm
22:04 11.4 °C 4.2 °C 1016.1 hPa NE 6.4 km/h 8 km/h 61% 0 mm
22:09 11.4 °C 4.1 °C 1016.1 hPa NE 4.8 km/h 8 km/h 61% 0 mm
22:14 11.3 °C 4.1 °C 1016.1 hPa NE 3.2 km/h 11.3 km/h 61% 0 mm
22:19 11.3 °C 4.1 °C 1015.8 hPa NE 3.2 km/h 12.9 km/h 61% 0 mm
22:24 11.3 °C 4 °C 1016.1 hPa NE 4.8 km/h 11.3 km/h 61% 0 mm
22:29 11.2 °C 4.2 °C 1016.1 hPa NE 4.8 km/h 11.3 km/h 62% 0 mm
22:34 11.2 °C 4.2 °C 1016.1 hPa NE 6.4 km/h 12.9 km/h 62% 0 mm
22:39 11.2 °C 4.2 °C 1015.8 hPa NE 4.8 km/h 12.9 km/h 62% 0 mm
22:44 11.2 °C 4.2 °C 1015.8 hPa NE 6.4 km/h 12.9 km/h 62% 0 mm
22:49 11.2 °C 4.2 °C 1015.8 hPa ENE 6.4 km/h 12.9 km/h 62% 0 mm
22:54 11.1 °C 4.1 °C 1015.8 hPa ENE 4.8 km/h 12.9 km/h 62% 0 mm
22:59 11.1 °C 4.3 °C 1015.8 hPa ENE 3.2 km/h 11.3 km/h 63% 0 mm
23:04 11.1 °C 4.3 °C 1015.8 hPa ENE 4.8 km/h 11.3 km/h 63% 0 mm
23:09 11 °C 4.2 °C 1015.8 hPa ENE 4.8 km/h 11.3 km/h 63% 0 mm
23:14 11 °C 4.2 °C 1015.8 hPa East 3.2 km/h 12.9 km/h 63% 0 mm
23:19 10.9 °C 4.2 °C 1015.8 hPa East 1.6 km/h 4.8 km/h 63% 0 mm
23:24 10.9 °C 4.3 °C 1015.8 hPa NE 6.4 km/h 8 km/h 64% 0 mm
23:29 10.9 °C 4.3 °C 1015.8 hPa NE 1.6 km/h 6.4 km/h 64% 0 mm
23:34 10.8 °C 4.5 °C 1016.1 hPa NE 3.2 km/h 6.4 km/h 65% 0 mm
23:39 10.8 °C 4.4 °C 1016.1 hPa NE 1.6 km/h 4.8 km/h 65% 0 mm
23:44 10.8 °C 4.4 °C 1016.1 hPa NE 3.2 km/h 8 km/h 65% 0 mm
23:49 10.7 °C 4.4 °C 1016.1 hPa ENE 3.2 km/h 9.7 km/h 65% 0 mm
23:54 10.7 °C 4.6 °C 1015.8 hPa ENE 3.2 km/h 8 km/h 66% 0 mm
23:59 10.7 °C 4.6 °C 1016.1 hPa NE 3.2 km/h 8 km/h 66% 0 mm
Buffalo, New York, USA
Compliments of Weather Underground - 2.5 mb